◎P/2003 YM159の軌道と予報位置です



  IAUC8433で報じられたとおり,昨年発見された2003 YM159が彗星であることが

判明しました.下の軌道は,そのA核のもので,B核は,現在,A核から,-103"

(西),+34"(北)の位置を似たような光度で移動しています.



    P/2003 YM159 (LINEAR-Catalina-A)

Epoch 2005 Mar. 11.0 TT = JDT 2453440.5  

T 2005 Feb. 28.53079 TT                                 Nakano

q   4.4112768            (2000.0)            P               Q

n   0.04398906     Peri.   87.65892     -0.67160084     -0.69895478

a   7.9476654      Node    47.86052     +0.47633317     -0.66142022

e   0.4449594      Incl.   19.35836     +0.56750245     -0.27200276

P  22.41 (+/- 0.28 day)

From 23 observations 2003 Dec. 17-2004 Nov. 10, mean residual 0".53.

Residuals in seconds of arc (or two decimals in units of degrees)

2003/                     031230 704  0.0   0.1+    041024 704  0.6+  0.4-  

031217 704  0.4-  0.4+    2004/                     041110 703  0.1-  0.3+  A

031217 704  0.1-  0.1+    041008 704  0.6+  0.7-    041110 703  0.1-  0.1-  A

031217 704  0.6+  0.5+    041008 704  0.5-  0.7+    041110 703  0.2+  0.5-  A

031217 704  0.3+  0.2+    041008 704  0.0   0.5+    041110 703  0.5-  0.2+  A

031217 704  0.4-  0.4+    041008 704  0.5-  0.1-    041110 703(0.03- 0.01+) B

031230 704  0.4+  0.8-    041024 704  0.1-  0.8+    041110 703(0.03- 0.01+) B

031230 704  0.1+  0.6-    041024 704  0.9+  1.8-    041110 703(0.03- 0.01+) B

031230 704  0.0   0.5-    041024 704  0.1+  1.0+    041110 703(0.03- 0.01+) B

031230 704  0.5-  0.1+    041024 704  0.7-  0.3+                            

 

Date/        TT  R.A.(2000) Decl.     Delta   r     Daily motion  Mag.  Moon Age

              h    h  m       。  ,                      ,  / PA 。  m1      。

2004 Nov. 10 18  09 33.45  +35 00.1   4.268  4.452     8.0 /  73  17.6   71  .05

          11 18  09 34.08  +35 02.4   4.253  4.451     7.9 /  72  17.6   84  .01

          12 18  09 34.69  +35 04.9   4.239  4.450     7.7 /  71  17.6   98  .00

          13 18  09 35.28  +35 07.4   4.224  4.450     7.6 /  70  17.6  112  .02

          14 18  09 35.87  +35 10.0   4.209  4.449     7.5 /  69  17.6  127  .07

          15 18  09 36.43  +35 12.6   4.194  4.448     7.3 /  68  17.6  140  .14

          16 18  09 36.99  +35 15.4   4.180  4.447     7.2 /  67  17.6  153  .23

          17 18  09 37.53  +35 18.2   4.165  4.447     7.0 /  66  17.6  163  .33

          18 18  09 38.05  +35 21.1   4.151  4.446     6.9 /  64  17.6  164  .44

          19 18  09 38.56  +35 24.1   4.136  4.445     6.8 /  63  17.6  156  .56

          20 18  09 39.05  +35 27.1   4.122  4.445     6.6 /  62  17.6  144  .66

          21 18  09 39.53  +35 30.3   4.107  4.444     6.5 /  60  17.5  132  .76

          22 18  09 40.00  +35 33.5   4.093  4.443     6.4 /  59  17.5  120  .84

          23 18  09 40.45  +35 36.8   4.079  4.443     6.3 /  57  17.5  108  .91

          24 18  09 40.88  +35 40.2   4.065  4.442     6.1 /  56  17.5   96  .96

          25 18  09 41.29  +35 43.6   4.051  4.441     6.0 /  54  17.5   84  .99

          26 18  09 41.70  +35 47.1   4.037  4.441     5.9 /  52  17.5   72 1.00

          27 18  09 42.08  +35 50.7   4.023  4.440     5.8 /  51  17.5   61  .99

          28 18  09 42.45  +35 54.4   4.009  4.440     5.7 /  49  17.5   49  .97

          29 18  09 42.80  +35 58.2   3.996  4.439     5.6 /  47  17.5   39  .92

          30 18  09 43.14  +36 02.0   3.982  4.438     5.5 /  45  17.5   28  .87

     Dec.  1 18  09 43.46  +36 05.9   3.969  4.438     5.4 /  43  17.5   20  .80

           2 18  09 43.76  +36 09.9   3.955  4.437     5.3 /  40  17.5   16  .71

           3 18  09 44.04  +36 13.9   3.942  4.437     5.2 /  38  17.4   20  .62

           4 18  09 44.31  +36 18.1   3.929  4.436     5.2 /  36  17.4   29  .53

           5 18  09 44.56  +36 22.2   3.916  4.435     5.1 /  34  17.4   39  .43

           6 18  09 44.80  +36 26.5   3.903  4.435     5.0 /  31  17.4   51  .33

           7 18  09 45.01  +36 30.8   3.890  4.434     5.0 /  29  17.4   64  .23

           8 18  09 45.21  +36 35.2   3.878  4.434     4.9 /  26  17.4   77  .15

           9 18  09 45.39  +36 39.6   3.865  4.433     4.9 /  23  17.4   90  .08

          10 18  09 45.55  +36 44.1   3.853  4.433     4.9 /  21  17.4  104  .03

NAKANO

         **** Don't distribute anyone except personal use only ****

                (C) Copyright 2004 OAA/ComputingSection

write mail from CFAD0::NAKANO on 2004-11-12 05:09:25(JST).

 

戻ります。